Regional Weather Roundup
Issued by NWS

Home | Current Version | Previous Version | Text Only | Print | Product List | Glossary Off
Versions: 1 2 3 4 5 6 7 8 9 10 11 12 13 14 15 16 17 18 19 20 21 22 23 24 25 26 27 28 29 30 31 32 33 34 35 36 37 38 39 40 41 42 43 44 45 46 47 48 49 50

000
ASUS43 KMKX 040000
RWRWI

WISCONSIN REGIONAL WEATHER ROUNDUP
NATIONAL WEATHER SERVICE MILWAUKEE/SULLIVAN WI
700 PM CDT FRI JUL 03 2015

NOTE: "FAIR" INDICATES FEW OR NO CLOUDS BELOW 12,000 FEET WITH NO
SIGNIFICANT WEATHER AND/OR OBSTRUCTIONS TO VISIBILITY.

WIZ001-002-006>008-014>016-023>028-040100-
NORTHWEST WISCONSIN

CITY           SKY/WX    TMP DP  RH WIND       PRES   REMARKS
SUPERIOR ARPT  MOSUNNY   78  62  57 NW8       29.84S HX  80
ASHLAND        SUNNY     77  66  68 W3        29.85S HAZE
6HR MIN TEMP:  75; 6HR MAX TEMP:  79;

HAYWARD        LGT RAIN  74  63  68 W6        29.90R
6HR MIN TEMP:  73; 6HR MAX TEMP:  77; 6HR PCP: TRACE;

SIREN          MOSUNNY   75  64  66 SW7       29.88F
CUMBERLAND     MOSUNNY   73  59  60 SW6       29.90F
RICE LAKE      PTSUNNY   75  58  55 SW7       29.91S
CHETEK         PTSUNNY   75  60  60 SW5       29.90F
LADYSMITH      CLOUDY    74  59  59 SW7       29.92S
EAU CLAIRE     NOT AVBL
MENOMONIE      MOSUNNY   76  57  52 SW9       29.91S
NEW RICHMOND   MOSUNNY   75  60  58 W6        29.91F
OSCEOLA        SUNNY     77  61  58 SW7       29.92F
$$

WIZ003>005-009-010-017-018-040100-
NORTH CENTRAL WISCONSIN

CITY           SKY/WX    TMP DP  RH WIND       PRES   REMARKS
MANITOWISH WTR MOSUNNY   73  62  68 W8        29.89F
ARBOR VITAE    SUNNY     72  61  67 W5        29.90F
WOODRUFF       SUNNY     72  61  67 W5        29.90F
RHINELANDER    SUNNY     72  58  61 W9        29.91F
6HR MIN TEMP:  72; 6HR MAX TEMP:  75;

EAGLE RIVER    SUNNY     72  57  58 W8        29.89F
LAND O LAKES   MOSUNNY   73  59  61 W7        29.90S
PHILLIPS       MOSUNNY   73  60  65 SW7       29.90S
TOMAHAWK       CLOUDY    71  57  61 W5        29.92R
MEDFORD        PTSUNNY   71  58  62 W5        29.92S
MERRILL        PTSUNNY   73  58  60 W7        29.92S
$$

WIZ029-030-035-036-043>047-040100-
CENTRAL WISCONSIN

CITY           SKY/WX    TMP DP  RH WIND       PRES   REMARKS
WAUSAU         PTSUNNY   74  54  49 W7        29.90S
6HR MIN TEMP:  73; 6HR MAX TEMP:  77;

MOSINEE        NOT AVBL
MARSHFIELD     SUNNY     73  56  54 W7        29.91F
6HR MIN TEMP:  73; 6HR MAX TEMP:  76;

STEVENS POINT  MOSUNNY   73  54  50 W8        29.91S
WAUPACA        SUNNY     77  55  46 SW9       29.90F
WAUTOMA        NOT AVBL
WISC RAPIDS    SUNNY     75  54  47 W7        29.92S
6HR MIN TEMP:  73; 6HR MAX TEMP:  78;

CAMP DOUGLAS   NOT AVBL
$$

WIZ011>013-019>022-031-037>040-048>050-040100-
NORTHEAST WISCONSIN

CITY           SKY/WX    TMP DP  RH WIND       PRES   REMARKS
ANTIGO         CLOUDY    69  56  63 W8        29.92S
SHAWANO        MOSUNNY   76  55  47 W7        29.89S
OCONTO         PTSUNNY   73  55  52 SW3       29.88S
STURGEON BAY   PTSUNNY   72  54  53 SW8       29.91S
6HR MIN TEMP:  70; 6HR MAX TEMP:  73;

GREEN BAY      SUNNY     74  54  49 SW5       29.89F
6HR MIN TEMP:  73; 6HR MAX TEMP:  76;

MANITOWOC      NOT AVBL
APPLETON       PTSUNNY   73  54  49 SW6       29.91F
CLINTONVILLE   MOSUNNY   75  54  46 W7        29.89S
OSHKOSH        SUNNY     74  53  48 SW5       29.90F
6HR MIN TEMP:  73; 6HR MAX TEMP:  76;

$$

WIZ032>034-041-042-053>061-040100-
SOUTHWEST WISCONSIN

CITY           SKY/WX    TMP DP  RH WIND       PRES   REMARKS
LA CROSSE      SUNNY     77  58  51 SW6       29.90F
6HR MIN TEMP:  75; 6HR MAX TEMP:  79;

SPARTA         SUNNY     76  55  48 W6        29.92F
VIROQUA        SUNNY     73  57  56 W5        29.94F
BOSCOBEL       SUNNY     75  58  55 CALM      29.93S
6HR MIN TEMP:  75; 6HR MAX TEMP:  78;

PRAIRIE DU CHI SUNNY     75  55  48 CALM      29.92F
PLATTEVILLE    SUNNY     73  54  50 W5        29.94F
$$

WIZ056-057-062-063-064-067-068-040100-
SOUTH CENTRAL WISCONSIN

CITY           SKY/WX    TMP DP  RH WIND       PRES   REMARKS
REEDSBURG      SUNNY     73  58  59 W6        29.92F
BARABOO/DELLS  SUNNY     73  55  53 W6        29.92F
LONE ROCK      NOT AVBL
MINERAL POINT  SUNNY     73  54  49 W6        29.94F
MADISON        MOSUNNY   74  52  46 NW3       29.92F
6HR MIN TEMP:  72; 6HR MAX TEMP:  77;

MIDDLETON      SUNNY     74  51  44 NW3       29.93F
WATERTOWN      SUNNY     73  56  53 SW5       29.91F
MONROE         SUNNY     73  55  53 NW6       29.93F
JANESVILLE     NOT AVBL
$$

WIZ051-052-058>065-066-070>072-040100-
SOUTHEAST WISCONSIN

CITY           SKY/WX    TMP DP  RH WIND       PRES   REMARKS
MILWAUKEE      PTSUNNY   67  52  58 SE6       29.92F
6HR MIN TEMP:  67; 6HR MAX TEMP:  74;

WAUKESHA       SUNNY     72  54  53 NW7       29.93S
MILWAUKEE/TIMM SUNNY     72  45  37 SE5       29.92F
RACINE         MOSUNNY   68  52  56 SE7       29.94S
6HR MIN TEMP:  68; 6HR MAX TEMP:  72;

BURLINGTON     SUNNY     71  57  61 NW5       29.92S
KENOSHA        SUNNY     69  52  54 SE7       29.93S
6HR MIN TEMP:  69; 6HR MAX TEMP:  75;

FOND DU LAC    SUNNY     73  53  49 SW5       29.91F
6HR MIN TEMP:  73; 6HR MAX TEMP:  76;

SHEBOYGAN      SUNNY     69  51  52 S10       29.91F
6HR MIN TEMP:  69; 6HR MAX TEMP:  75;

WEST BEND      SUNNY     70  50  49 E5        29.92S
JUNEAU         SUNNY     72  53  50 W5        29.93F
$$

LSZ147-162-040100-
LAKE SUPERIOR

STATION/POSITION TIME  TEMP    WIND        PRES    WAVE
                       AIR SEA DIR/SP/G            HT/PER
                 (UTC) (F)     (DEG/KT/KT) (MB)    (FT/S)
W MID LAKE BUOY  2250   54 39  200/  4/  4 1010.3R   1/ 4
DEVILS ISLAND    2300   69     280/ 10/ 12 1010.3R
SAXON HARBOR     2300   78        CALM     1010.5S
$$

LMZ867-665-643>646-040100-
LAKE MICHIGAN

STATION/POSITION TIME  TEMP    WIND        PRES    WAVE
                       AIR SEA DIR/SP/G            HT/PER
                 (UTC) (F)     (DEG/KT/KT) (MB)    (FT/S)
CHAMBERS ISLAND  2300   71     190/  8/ 13 1011.9S
S GREEN BAY BUOY 2330   71 69  220/  8/ 12 1013.4F
N MID LAKE BUOY  2250   50 43  210/ 12/ 12 1012.2F   2/ 4
NORTHPORT PIER   2300   67     170/  5/  7 1011.9S
SISTER BAY       2314   71     200/  9/ 11   N/A
ALGOMA LAKESHORE 2310          220/ 13/ 14   N/A
KEWAUNEE LAKESHO 2300   64     180/ 11/ 13 1012.1F
SHEBOYGAN LAKESH 2300   65     180/ 13/ 13 1013.4F
PORT WASHINGTON  2340   66     180/  3/  5 1013.9F
ATWATER BUOY     2300   62 61  170/  6/  8 1014.9F
MILWAUKEE LAKESH 2300   62     140/  3/  4   N/A
KENOSHA   LAKESH 2300   68     130/  2/  4 1013.2F
$$

TC  - TEMPERATURE IN CELSIUS
VSB - VISIBILITY IN STATUTE MILES
WCI - WIND CHILL INDEX
HX  - HEAT INDEX



USA.gov is the U.S. government's official web portal to all federal, state and local government web resources and services.